Location: Carnoy
(49.9849°N, 2.7558°E)
Time: 16:51:24
(UTC+00:00)

Cosmos 44 - Pass Details

Date: 24 January 2020
Orbit: 595 x 767 km, 65.1° (Epoch: 20 February)

Event Time Altitude Azimuth Distance (km) Brightness Sun altitude
Rises 18:18:44 0° 213° (SSW) 2,947 7.2 -17.4°
Reaches altitude 10° 18:21:03 10° 211° (SSW) 2,016 6.2 -17.8°
Maximum altitude 18:25:35 75° 127° (SE) 643 2.9 -18.5°
Enters shadow 18:27:17 37° 49° (NE) 962 3.6 -18.7°
